Flag for France Weather past 2 weeks in Tours, France

Now
57 °F

Passing clouds.


Feels Like: 55 °F
Forecast: 45 / 58 °F
Wind: 12 mph from Southwest

Location: Tours Airport

Current Time: Oct 21, 2014 at 8:22:16 AM

Latest Report: Oct 21, 2014 at 8:00 AM


Visibility: N/A

Pressure: 30.01 "Hg

Humidity: 94%

Dew point: 55 °F

Location of ToursLocation

Historic Weather in Tours — Graph

°F

Tours temperature yesterday

Maximum temperature yesterday: 66 °F (at 2:30 PM)
Minimum temperature yesterday: 55 °F (at 7:00 AM)
Average temperature yesterday: 60 °F

Past Weeks' High & Low Weather Summary

 TemperatureHumidityPressure
High77 °F (Oct 18, 4:00 PM)100% (Oct 6, 7:00 AM)30.18 "Hg (Oct 6, 7:00 AM)
Low43 °F (Oct 6, 7:00 AM)51% (Oct 18, 5:00 PM)29.56 "Hg (Oct 8, 8:00 PM)
Average59 °F85%29.84 "Hg
* Reported Oct 6 7:00 AM — Oct 21 7:00 AM, Tours, Weather by CustomWeather, © 2014

Note: Actual official high and low records may vary slightly from our data, if they occured in-between our weather recording intervals... More about our weather records

Advertising

Tours weather history for previous 24 hours

 ConditionsComfort  
Time TempWeatherWind HumidityBarometerVisibility
7:00 AM
Oct 21
57 °FPassing clouds.9 mph94%30.01 "HgN/A
6:30 AM57 °FPassing clouds.9 mph94%30.01 "HgN/A
6:00 AM57 °FPassing clouds.7 mph94%30.01 "HgN/A
5:30 AM57 °FPassing clouds.10 mph94%30.04 "HgN/A
5:00 AM57 °FPassing clouds.7 mph94%30.04 "HgN/A
4:30 AM57 °FOvercast.7 mph94%30.04 "HgN/A
4:00 AM57 °FPassing clouds.7 mph94%30.07 "HgN/A
3:30 AM57 °FOvercast.7 mph94%30.07 "HgN/A
3:00 AM57 °FLow clouds.8 mph94%30.07 "HgN/A
2:30 AM57 °FPassing clouds.5 mph94%30.07 "HgN/A
2:00 AM57 °FPassing clouds.5 mph94%30.09 "HgN/A
1:30 AM57 °FPartly cloudy.3 mph94%30.09 "HgN/A
1:00 AM57 °FPartly cloudy.3 mph94%30.09 "HgN/A
12:30 AM57 °FPartly cloudy.3 mph94%30.09 "HgN/A
12:00 AM57 °FPartly cloudy.2 mph100%30.09 "HgN/A
11:30 PM
Oct 20
57 °FPassing clouds.2 mph94%30.09 "HgN/A
11:00 PM59 °FClear.No wind94%30.09 "Hg10 mi
10:30 PM59 °FClear.No wind88%30.09 "Hg10 mi
10:00 PM59 °FClear.2 mph94%30.09 "Hg10 mi
9:30 PM59 °FClear.2 mph94%30.09 "Hg10 mi
9:04 PM59 °FPassing clouds.2 mph94%30.09 "HgN/A
8:30 PM59 °FLight rain. Passing clouds.2 mph88%30.09 "HgN/A
8:00 PM59 °FClear.No wind94%30.09 "Hg10 mi
7:30 PM59 °FCool.3 mph94%30.09 "HgN/A
7:00 PM59 °FClear.3 mph94%30.09 "HgN/A
6:30 PM61 °FPartly sunny.No wind88%30.09 "HgN/A
6:00 PM61 °FRain. More clouds than sun.2 mph88%30.09 "HgN/A
5:30 PM63 °FLight rain. Cloudy.5 mph83%30.09 "HgN/A
5:00 PM63 °FMild.6 mph83%30.09 "HgN/A
4:30 PM64 °FClear.7 mph78%30.12 "HgN/A
4:00 PM64 °FMostly cloudy.9 mph78%30.12 "HgN/A
3:30 PM66 °FClear.3 mph68%30.12 "HgN/A
3:00 PM64 °FClear.3 mph73%30.12 "HgN/A
2:30 PM66 °FClear.3 mph73%30.15 "HgN/A
2:00 PM64 °FClear.3 mph73%30.15 "HgN/A
1:30 PM64 °FClear.3 mph78%30.15 "HgN/A
1:00 PM63 °FClear.2 mph83%30.18 "HgN/A
12:30 PM61 °FBroken clouds.1 mph88%30.18 "HgN/A
12:00 PM61 °FLow clouds.2 mph88%30.18 "HgN/A
11:30 AM59 °FLow clouds.5 mph94%30.18 "HgN/A
11:00 AM61 °FPartly sunny.1 mph88%30.18 "HgN/A
10:30 AM59 °FLow clouds.No wind94%30.15 "HgN/A
10:00 AM57 °FLow clouds.No wind100%30.15 "HgN/A
9:30 AM55 °FBroken clouds.1 mph100%30.15 "Hg5 mi
9:00 AM55 °FLight rain. Passing clouds.1 mph94%30.15 "Hg4 mi
8:30 AM55 °FFog.No wind94%30.15 "Hg1 mi
8:00 AM55 °FClear.3 mph94%30.15 "Hg10 mi
Weather by CustomWeather, © 2014

See weather overviewHow to use our weather pages